Weather History for KBGR - June, 2013

Change the Weather History Date:

Sunday, June 23, 2013

  Actual Average Record
Temperature  
Mean Temperature 67 °F 65 °F  
Max Temperature 78 °F 76 °F 97 °F (1938)
Min Temperature 56 °F 54 °F 42 °F (1940)
Degree Days  
Heating Degree Days 0 2  
Month to date heating degree days 93 96  
Since 1 June heating degree days 93 96  
Since 1 July heating degree days 7543 7849  
Cooling Degree Days 2 2  
Month to date cooling degree days 26 33  
Year to date cooling degree days 34 39  
Since 1 June cooling degree days 26 33  
Growing Degree Days 17 (Base 50)    
Moisture  
Dew Point 62 °F    
Average Humidity 85    
Maximum Humidity 100    
Minimum Humidity 69    
Precipitation  
Precipitation 0.01 in 0.12 in 1.44 in (1990)
Month to date precipitation 3.36 2.96  
Year to date precipitation 14.65 19.01  
Snow  
Snow 0.00 in 0.00 in 0.00 in (2002)
Month to date snowfall 0.0 0.0  
Since 1 June snowfall 0.0 0.0  
Since 1 July snowfall 74.3 66.1  
Snow Depth 0.00 in    
Sea Level Pressure  
Sea Level Pressure 30.05 in    
Wind  
Wind Speed 4 mph (South)    
Max Wind Speed 12 mph    
Max Gust Speed 31 mph    
Visibility 9 miles    
Events      
T = Trace of Precipitation, MM = Missing Value Source: NWS Daily Summary

Daily Weather History Graph

Daily Weather History Graph

Search for Another Location

Airport or City:

Trip Planner

Search our weather history database for the weather conditions in past years. The results will help you decide how hot, cold, wet, or windy it might be!

Date:

Astronomy

Jun. 23, 2013 Rise Set
Actual Time 4:49 AM EDT 8:25 PM EDT
Civil Twilight 4:12 AM EDT 9:02 PM EDT
Nautical Twilight 3:23 AM EDT 9:51 PM EDT
Astronomical Twilight 2:18 AM EDT 10:56 PM EDT
Moon 8:30 PM EDT (6/23) 5:06 AM EDT (6/23)
Length of Visible Light 16h 49m
Length of Day
15h 35m
Full, 100% of the Moon is Illuminated
Jun 23
Full
Jun 30
Last Quarter
Jul 8
New
Jul 15
First Quarter
Jul 22
Full

Hourly Weather History & Observations

Time (EDT) Temp. Dew Point Humidity Pressure Visibility Wind Dir Wind Speed Gust Speed Precip Events Conditions
12:53 AM 60.1 °F 59.0 °F 96% 30.12 in 7.0 mi South 3.5 mph - N/A   Partly Cloudy
1:53 AM 57.9 °F 57.0 °F 97% 30.12 in 10.0 mi Calm Calm - N/A   Partly Cloudy
2:53 AM 57.0 °F 55.9 °F 96% 30.11 in 10.0 mi Calm Calm - N/A   Partly Cloudy
3:53 AM 59.0 °F 57.9 °F 96% 30.12 in 10.0 mi SW 4.6 mph - N/A   Mostly Cloudy
4:53 AM 59.0 °F 57.9 °F 96% 30.12 in 6.0 mi Calm Calm - N/A   Mostly Cloudy
5:53 AM 61.0 °F 60.1 °F 97% 30.13 in 5.0 mi Calm Calm - 0.00 in   Overcast
6:53 AM 62.1 °F 60.1 °F 93% 30.12 in 5.0 mi Calm Calm - 0.01 in   Overcast
7:53 AM 63.0 °F 62.1 °F 97% 30.12 in 6.0 mi Calm Calm - N/A   Overcast
8:53 AM 66.0 °F 63.0 °F 90% 30.12 in 8.0 mi Calm Calm - N/A   Overcast
9:53 AM 66.9 °F 64.0 °F 90% 30.12 in 8.0 mi South 3.5 mph - N/A   Overcast
10:53 AM 68.0 °F 64.0 °F 87% 30.10 in 9.0 mi SSW 6.9 mph - N/A   Overcast
11:53 AM 68.0 °F 64.0 °F 87% 30.09 in 7.0 mi South 10.4 mph - N/A   Overcast
12:53 PM 71.1 °F 64.0 °F 78% 30.07 in 9.0 mi SSW 8.1 mph - N/A   Overcast
1:48 PM 73.4 °F 64.4 °F 73% 30.05 in 9.0 mi South 5.8 mph - N/A   Overcast
1:53 PM 73.9 °F 64.9 °F 73% 30.04 in 9.0 mi South 5.8 mph - N/A   Overcast
2:53 PM 75.9 °F 66.9 °F 74% 30.03 in 9.0 mi Variable 6.9 mph - N/A   Overcast
3:21 PM 75.2 °F 66.2 °F 73% 30.02 in 9.0 mi South 6.9 mph - N/A   Mostly Cloudy
3:53 PM 77.0 °F 66.9 °F 71% 29.99 in 9.0 mi South 8.1 mph - N/A   Mostly Cloudy
4:53 PM 77.0 °F 66.0 °F 69% 29.97 in 10.0 mi SSW 10.4 mph - N/A   Mostly Cloudy
5:53 PM 75.0 °F 64.9 °F 71% 29.96 in 10.0 mi South 9.2 mph - N/A   Mostly Cloudy
6:53 PM 73.0 °F 64.9 °F 76% 29.96 in 10.0 mi South 6.9 mph - N/A   Mostly Cloudy
7:53 PM 70.0 °F 63.0 °F 78% 29.96 in 10.0 mi South 5.8 mph - N/A   Overcast
8:53 PM 66.9 °F 62.1 °F 84% 29.95 in 10.0 mi South 6.9 mph - N/A   Overcast
9:53 PM 64.9 °F 61.0 °F 87% 29.96 in 10.0 mi South 5.8 mph - N/A   Mostly Cloudy
10:53 PM 64.4 °F 60.8 °F 88% 29.96 in 10.0 mi South 5.8 mph - N/A   Overcast
11:53 PM 66.9 °F 63.0 °F 87% 29.94 in 10.0 mi South 4.6 mph - N/A   Overcast